FW7632 Weather Reports


Display with metric or nautical units.
time (UTC)temp
F
wind
direction
speed
MPH
gust
MPH
rain 1hr
in
rain 24hr
in
rain mn
in
humidity
%
barometer
mb
20260507224533 55 43 4.0 9.0 0.00 0.00 0.00 46 1008.0
20260507223026 55 51 4.0 11.0 0.00 0.00 0.00 46 1008.1
20260507221524 55 17 3.0 13.0 0.00 0.00 0.00 45 1008.0
20260507220019 56 18 6.0 11.0 0.00 0.00 0.00 43 1008.0
20260507214519 56 335 3.0 10.0 0.00 0.00 0.00 44 1008.1
20260507213010 56 333 5.0 11.0 0.00 0.00 0.00 43 1008.3
20260507211506 56 360 2.0 12.0 0.00 0.00 0.00 43 1008.1
20260507210001 57 351 3.0 10.0 0.00 0.00 0.00 44 1008.2
20260507204600 55 326 6.0 15.0 0.00 0.00 0.00 44 1008.2
20260507203058 55 331 8.0 15.0 0.00 0.00 0.00 44 1008.2
20260507201548 55 336 4.0 14.0 0.00 0.02 0.00 44 1008.2
20260507200044 56 24 5.0 11.0 0.00 0.02 0.00 43 1008.3
20260507194540 56 348 7.0 16.0 0.00 0.02 0.00 43 1008.4
20260507193037 56 338 6.0 10.0 0.00 0.02 0.00 43 1008.5
20260507191532 56 19 5.0 10.0 0.00 0.03 0.00 42 1008.7
20260507190031 57 31 5.0 13.0 0.00 0.03 0.00 40 1008.8
20260507184522 57 264 4.0 12.0 0.00 0.03 0.00 41 1008.8
20260507183034 57 330 8.0 15.0 0.00 0.03 0.00 40 1009.0
20260507181514 59 346 4.0 12.0 0.00 0.04 0.00 38 1009.1
20260507180008 57 238 4.0 12.0 0.00 0.04 0.00 42 1009.3
20260507174506 56 340 4.0 10.0 0.00 0.04 0.00 43 1009.6
20260507173100 57 306 3.0 11.0 0.00 0.04 0.00 42 1009.6
20260507171610 55 315 5.0 9.0 0.00 0.04 0.00 45 1009.8
20260507170051 54 302 4.0 10.0 0.00 0.04 0.00 45 1009.8
20260507164550 54 338 5.0 10.0 0.00 0.04 0.00 44 1009.9
20260507163049 54 294 4.0 10.0 0.00 0.04 0.00 43 1010.1
20260507161542 55 282 5.0 12.0 0.00 0.05 0.00 42 1010.3
20260507160044 56 296 2.0 12.0 0.00 0.05 0.00 43 1010.3
20260507154531 56 336 4.0 13.0 0.00 0.05 0.00 44 1010.5
20260507153024 56 245 6.0 13.0 0.00 0.05 0.00 44 1010.7
20260507151520 55 338 4.0 10.0 0.00 0.09 0.00 45 1010.8
20260507150020 56 219 3.0 11.0 0.00 0.09 0.00 44 1011.0
20260507144516 55 344 2.0 8.0 0.00 0.09 0.00 46 1011.2
20260507143008 54 22 6.0 10.0 0.00 0.09 0.00 47 1011.3
20260507141508 53 260 1.0 4.0 0.00 0.13 0.00 46 1011.3
20260507140107 52 308 2.0 7.0 0.00 0.13 0.00 46 1011.4
20260507134554 51 292 3.0 8.0 0.00 0.13 0.00 44 1011.5
20260507133053 50 335 1.0 6.0 0.00 0.13 0.00 36 1011.6
20260507131547 49 333 1.0 4.0 0.00 0.25 0.00 18 1011.6
20260507130050 47 323 2.0 6.0 0.00 0.25 0.00 1 1011.7
20260507124551 46 302 2.0 8.0 0.00 0.25 0.00 1 1011.7
20260507123032 44 300 1.0 5.0 0.00 0.25 0.00 1 1011.9
20260507121527 44 293 2.0 7.0 0.00 0.28 0.00 1 1011.8
20260507120022 43 294 1.0 4.0 0.00 0.28 0.00 1 1011.7
20260507114528 43 293 2.0 5.0 0.00 0.28 0.00 1 1011.7
20260507113019 43 292 1.0 3.0 0.00 0.28 0.00 1 1011.5
20260507111516 41 294 0.0 2.0 0.00 0.28 0.00 1 1011.4
20260507110023 40 198 0.0 3.0 0.00 0.28 0.00 1 1011.4
20260507104504 39 295 0.0 1.0 0.00 0.28 0.00 1 1011.3
20260507103059 38 291 1.0 2.0 0.00 0.28 0.00 1 1011.1
20260507101558 38 290 0.0 3.0 0.00 0.30 0.00 1 1011.1
20260507100054 39 290 1.0 3.0 0.00 0.30 0.00 1 1011.1
20260507094546 39 290 1.0 2.0 0.00 0.30 0.00 1 1011.0
20260507093043 40 290 0.0 2.0 0.00 0.30 0.00 1 1011.0
20260507091542 40 291 0.0 3.0 0.00 0.30 0.00 1 1011.0
20260507090033 41 292 0.0 2.0 0.00 0.30 0.00 1 1011.1
20260507084532 41 360 0.0 4.0 0.00 0.30 0.00 1 1011.0
20260507083024 42 293 1.0 4.0 0.00 0.30 0.00 1 1011.1
20260507081521 42 290 2.0 4.0 0.00 0.30 0.00 1 1011.0
20260507080017 43 290 1.0 4.0 0.00 0.30 0.00 1 1011.1
20260507074510 43 290 1.0 3.0 0.00 0.30 0.00 1 1011.0
20260507073007 43 290 2.0 4.0 0.00 0.30 0.00 1 1010.8
20260507071504 44 290 1.0 5.0 0.00 0.30 0.00 1 1011.0
20260507070115 44 281 2.0 8.0 0.00 0.30 0.00 1 1011.0
20260507064604 45 309 2.0 9.0 0.00 0.30 0.00 1 1010.9
20260507063056 45 273 2.0 6.0 0.00 0.30 0.00 1 1010.7
20260507061548 45 265 4.0 11.0 0.00 0.30 0.00 1 1010.5
20260507060045 46 318 5.0 10.0 0.00 0.30 0.00 1 1010.3
20260507054538 46 336 3.0 10.0 0.00 0.30 0.00 1 1010.2
20260507053031 47 342 5.0 9.0 0.00 0.30 0.00 1 1010.1
20260507051527 47 318 2.0 5.0 0.00 0.30 0.00 1 1010.3
20260507050025 47 278 1.0 5.0 0.00 0.30 0.00 1 1010.2
20260507044519 46 279 1.0 5.0 0.00 0.30 0.00 1 1010.3
20260507043013 46 280 0.0 2.0 0.00 0.30 0.00 1 1010.2
20260507041509 46 280 0.0 1.0 0.00 0.30 0.30 1 1009.9
20260507040004 46 280 0.0 3.0 0.00 0.30 0.30 1 1009.9
20260507034616 46 280 0.0 2.0 0.00 0.30 0.30 1 1009.8
20260507033102 46 280 0.0 1.0 0.00 0.30 0.30 1 1009.6
20260507031557 46 281 0.0 1.0 0.00 0.30 0.30 1 1010.0
20260507030048 46 281 0.0 2.0 0.00 0.30 0.30 1 1009.7
20260507024543 46 281 1.0 3.0 0.00 0.30 0.30 1 1010.3
20260507023038 46 281 0.0 2.0 0.00 0.30 0.30 1 1009.9
20260507021534 46 280 0.0 2.0 0.00 0.30 0.30 1 1010.6
20260507020040 47 280 0.0 2.0 0.00 0.30 0.30 1 1010.4
20260507014526 47 280 0.0 1.0 0.00 0.30 0.30 1 1010.4
20260507013039 47 280 0.0 3.0 0.00 0.30 0.30 1 1010.3
20260507011517 47 280 0.0 3.0 0.00 0.30 0.30 1 1010.3
20260507010013 47 280 0.0 3.0 0.00 0.30 0.30 1 1010.1
20260507004507 47 280 0.0 2.0 0.00 0.30 0.30 1 1010.0
20260507003004 47 280 0.0 4.0 0.00 0.30 0.30 1 1009.8
20260507001600 47 261 1.0 4.0 0.00 0.30 0.30 1 1009.6
20260507000055 48 261 1.0 4.0 0.00 0.30 0.30 1 1009.4
20260506234550 48 301 1.0 5.0 0.00 0.30 0.30 1 1009.1
20260506233100 48 248 1.0 5.0 0.00 0.30 0.30 1 1009.1
20260506231542 48 293 3.0 8.0 0.00 0.31 0.30 1 1009.2
20260506230036 48 256 3.0 7.0 0.00 0.31 0.30 1 1008.9